A7LMU OTBD-OTBD

Flight info

Callsign A7LMU
Flight time 2h 1m
Altitude 6000
Route VFR
Aircraft PC12/L-SDFGRWY/S

Departure

Time 2026-04-22 11:55
Airport Doha International Airport (OTBD)

Arrival

Time 2026-04-22 13:56
Airport Doha International Airport (OTBD)
Time Latitude Longitude Altitude Speed Heading
2026-04-22 11:23 25.27210 51.56361 23 ft 0 kts 338°
2026-04-22 11:51 25.27218 51.56340 23 ft 8 kts 247°
2026-04-22 11:51 25.27186 51.56299 22 ft 6 kts 238°
2026-04-22 11:51 25.27150 51.56202 24 ft 14 kts 247°
2026-04-22 11:52 25.27144 51.56186 26 ft 0 kts 248°
2026-04-22 11:53 25.27143 51.56181 26 ft 0 kts 248°
2026-04-22 11:53 25.27140 51.56175 24 ft 4 kts 247°
2026-04-22 11:53 25.27114 51.56103 26 ft 14 kts 248°
2026-04-22 11:53 25.27041 51.56097 26 ft 18 kts 159°
2026-04-22 11:54 25.26926 51.56147 27 ft 43 kts 159°
2026-04-22 11:54 25.26441 51.56361 24 ft 103 kts 158°
2026-04-22 11:54 25.25668 51.56701 167 ft 128 kts 152°
2026-04-22 11:54 25.24794 51.57084 488 ft 148 kts 155°
2026-04-22 11:55 25.23798 51.57477 933 ft 150 kts 155°
2026-04-22 11:55 25.22749 51.57768 1297 ft 177 kts 191°
2026-04-22 11:55 25.21613 51.57065 1652 ft 190 kts 234°
2026-04-22 11:55 25.21408 51.55745 1877 ft 174 kts 294°
2026-04-22 11:56 25.21862 51.54659 2365 ft 144 kts 305°
2026-04-22 11:56 25.22332 51.53655 2516 ft 158 kts 305°
2026-04-22 11:56 25.22861 51.52626 2339 ft 146 kts 309°
2026-04-22 11:56 25.23381 51.51758 2406 ft 128 kts 314°
2026-04-22 11:57 25.23911 51.50808 2371 ft 168 kts 307°
2026-04-22 11:57 25.24447 51.49753 3374 ft 145 kts 303°
2026-04-22 11:57 25.24920 51.48765 4067 ft 151 kts 303°
2026-04-22 11:57 25.25472 51.47741 4670 ft 156 kts 315°
2026-04-22 11:58 25.26358 51.47047 5257 ft 160 kts 335°
2026-04-22 11:58 25.27337 51.46369 5776 ft 174 kts 332°
2026-04-22 11:58 25.28447 51.45607 6013 ft 204 kts 332°
2026-04-22 11:58 25.29761 51.44756 6031 ft 231 kts 333°
2026-04-22 11:59 25.31223 51.43817 6024 ft 251 kts 333°
2026-04-22 11:59 25.32759 51.42818 6023 ft 259 kts 333°
2026-04-22 11:59 25.34317 51.41810 6022 ft 261 kts 333°
2026-04-22 11:59 25.35883 51.40805 6021 ft 259 kts 332°
2026-04-22 12:00 25.37431 51.39817 6018 ft 261 kts 333°
2026-04-22 12:00 25.39000 51.38807 6015 ft 260 kts 333°
2026-04-22 12:00 25.40572 51.37811 6017 ft 260 kts 333°
2026-04-22 12:00 25.42140 51.36815 6016 ft 259 kts 332°
2026-04-22 12:01 25.43711 51.35814 6014 ft 261 kts 334°
2026-04-22 12:01 25.45285 51.34802 6009 ft 260 kts 336°
2026-04-22 12:01 25.47004 51.34330 6012 ft 254 kts
2026-04-22 12:01 25.48769 51.34225 6005 ft 256 kts
2026-04-22 12:02 25.50537 51.34159 6002 ft 252 kts
2026-04-22 12:02 25.52294 51.34118 6003 ft 252 kts
2026-04-22 12:02 25.54046 51.34096 6005 ft 251 kts
2026-04-22 12:02 25.55798 51.34061 6005 ft 251 kts
2026-04-22 12:03 25.57548 51.34019 6003 ft 252 kts
2026-04-22 12:03 25.59308 51.33966 6013 ft 252 kts
2026-04-22 12:03 25.61050 51.33922 6016 ft 253 kts
2026-04-22 12:03 25.62801 51.33934 6006 ft 252 kts
2026-04-22 12:04 25.64566 51.33908 6007 ft 254 kts
2026-04-22 12:04 25.66298 51.33868 5146 ft 252 kts
2026-04-22 12:04 25.68048 51.33857 4433 ft 244 kts
2026-04-22 12:04 25.69712 51.33889 3751 ft 232 kts
2026-04-22 12:05 25.71235 51.33945 3526 ft 199 kts
2026-04-22 12:05 25.72569 51.33999 3504 ft 194 kts
2026-04-22 12:05 25.73976 51.34047 3489 ft 206 kts
2026-04-22 12:05 25.75364 51.34096 2882 ft 202 kts
2026-04-22 12:06 25.76820 51.34168 2036 ft 211 kts
2026-04-22 12:06 25.78244 51.34258 1592 ft 193 kts
2026-04-22 12:06 25.79449 51.34316 1502 ft 165 kts
2026-04-22 12:06 25.80519 51.34398 1501 ft 141 kts
2026-04-22 12:07 25.81415 51.34505 1496 ft 116 kts
2026-04-22 12:07 25.82141 51.34386 1471 ft 106 kts 321°
2026-04-22 12:07 25.82526 51.33694 1509 ft 104 kts 309°
2026-04-22 12:07 25.82871 51.33026 1502 ft 100 kts 308°
2026-04-22 12:08 25.83180 51.32276 1507 ft 117 kts 285°
2026-04-22 12:08 25.83109 51.31331 1523 ft 127 kts 272°
2026-04-22 12:08 25.83012 51.30373 1521 ft 117 kts 272°
2026-04-22 12:08 25.82881 51.29497 1497 ft 116 kts 257°
2026-04-22 12:09 25.82199 51.29096 1468 ft 121 kts 165°
2026-04-22 12:09 25.81311 51.29330 1061 ft 148 kts 182°
2026-04-22 12:09 25.80358 51.29297 783 ft 117 kts 182°
2026-04-22 12:09 25.79574 51.29293 645 ft 110 kts 182°
2026-04-22 12:10 25.78841 51.29288 513 ft 102 kts 182°
2026-04-22 12:10 25.78138 51.29285 390 ft 103 kts 181°
2026-04-22 12:10 25.77407 51.29263 234 ft 104 kts 182°
2026-04-22 12:10 25.76704 51.29262 117 ft 94 kts 179°
2026-04-22 12:11 25.76263 51.29262 116 ft 30 kts 181°
2026-04-22 12:11 25.76208 51.29218 116 ft 9 kts 304°
2026-04-22 12:11 25.76255 51.29127 117 ft 18 kts 268°
2026-04-22 12:11 25.76254 51.29083 117 ft 0 kts 269°
2026-04-22 12:20 25.76256 51.29012 117 ft 17 kts 274°
2026-04-22 12:20 25.76277 51.28888 117 ft 19 kts 319°
2026-04-22 12:20 25.76430 51.28876 116 ft 26 kts
2026-04-22 12:21 25.76538 51.28940 117 ft 19 kts 86°
2026-04-22 12:21 25.76537 51.29120 117 ft 15 kts 94°
2026-04-22 12:21 25.76560 51.29189 118 ft 3 kts 44°
2026-04-22 12:21 25.76561 51.29190 118 ft 0 kts 44°
2026-04-22 12:25 25.76574 51.29205 117 ft 8 kts 49°
2026-04-22 12:25 25.76541 51.29263 118 ft 18 kts 180°
2026-04-22 12:26 25.76358 51.29262 118 ft 34 kts 179°
2026-04-22 12:26 25.76078 51.29263 116 ft 47 kts 179°
2026-04-22 12:26 25.75758 51.29262 113 ft 31 kts 179°
2026-04-22 12:26 25.75743 51.29187 116 ft 9 kts 287°
2026-04-22 12:27 25.75679 51.29163 115 ft 18 kts 180°
2026-04-22 12:27 25.75500 51.29163 117 ft 33 kts 179°
2026-04-22 12:27 25.75252 51.29163 117 ft 39 kts 180°
2026-04-22 12:27 25.75103 51.29181 118 ft 6 kts 81°
2026-04-22 12:28 25.75105 51.29188 119 ft 0 kts 76°
2026-04-22 12:28 25.75132 51.29230 120 ft 13 kts 39°
2026-04-22 12:29 25.75220 51.29263 117 ft 0 kts 358°
2026-04-22 12:29 25.75269 51.29261 117 ft 29 kts
2026-04-22 12:29 25.75692 51.29262 115 ft 89 kts
2026-04-22 12:29 25.76363 51.29253 449 ft 97 kts 357°
2026-04-22 12:30 25.77872 51.29183 1229 ft 121 kts 356°
2026-04-22 12:30 25.78660 51.28765 1829 ft 133 kts 302°
2026-04-22 12:30 25.78688 51.27719 2634 ft 143 kts 271°
2026-04-22 12:31 25.78588 51.26531 3009 ft 173 kts 272°
2026-04-22 12:31 25.78507 51.25045 3017 ft 208 kts 267°
2026-04-22 12:31 25.77772 51.23545 3017 ft 240 kts 225°
2026-04-22 12:31 25.76384 51.22441 3019 ft 250 kts 214°
2026-04-22 12:32 25.74907 51.21427 3013 ft 254 kts 213°
2026-04-22 12:32 25.71872 51.19368 3009 ft 255 kts 212°
2026-04-22 12:32 25.70359 51.18339 3008 ft 256 kts 213°
2026-04-22 12:33 25.68821 51.17317 3009 ft 258 kts 212°
2026-04-22 12:33 25.67294 51.16281 3012 ft 257 kts 213°
2026-04-22 12:33 25.65777 51.15260 3005 ft 258 kts 212°
2026-04-22 12:33 25.64152 51.14388 3007 ft 260 kts 204°
2026-04-22 12:34 25.62473 51.13629 3009 ft 261 kts 203°
2026-04-22 12:34 25.60792 51.12886 3006 ft 259 kts 203°
2026-04-22 12:34 25.59122 51.12155 3005 ft 258 kts 202°
2026-04-22 12:34 25.57455 51.11418 3006 ft 256 kts 202°
2026-04-22 12:35 25.55788 51.10678 3004 ft 260 kts 203°
2026-04-22 12:35 25.54106 51.09937 3006 ft 258 kts 202°
2026-04-22 12:35 25.52446 51.09192 3006 ft 258 kts 202°
2026-04-22 12:35 25.50842 51.08308 3001 ft 257 kts 219°
2026-04-22 12:36 25.49735 51.06829 2996 ft 254 kts 240°
2026-04-22 12:36 25.48815 51.05165 3002 ft 253 kts 242°
2026-04-22 12:36 25.47910 51.03490 3006 ft 252 kts 243°
2026-04-22 12:36 25.47025 51.01828 3002 ft 251 kts 243°
2026-04-22 12:37 25.46166 51.00217 3006 ft 252 kts 242°
2026-04-22 12:37 25.45285 50.98536 3003 ft 251 kts 242°
2026-04-22 12:37 25.44336 50.97009 2379 ft 234 kts 226°
2026-04-22 12:37 25.42858 50.96380 2038 ft 238 kts 180°
2026-04-22 12:38 25.41224 50.96724 2015 ft 242 kts 163°
2026-04-22 12:38 25.39666 50.97177 2007 ft 227 kts 170°
2026-04-22 12:38 25.38153 50.97391 1995 ft 210 kts 163°
2026-04-22 12:38 25.36801 50.97789 1990 ft 194 kts 162°
2026-04-22 12:39 25.35492 50.98182 1991 ft 195 kts 162°
2026-04-22 12:39 25.33262 50.99129 1972 ft 153 kts 120°
2026-04-22 12:39 25.33134 51.00142 1992 ft 130 kts 71°
2026-04-22 12:40 25.33290 51.01125 1991 ft 130 kts 73°
2026-04-22 12:40 25.33424 51.02094 1993 ft 128 kts 69°
2026-04-22 12:40 25.33772 51.02917 1989 ft 111 kts 43°
2026-04-22 12:40 25.34105 51.03331 1995 ft 108 kts 39°
2026-04-22 12:41 25.34872 51.04047 1988 ft 104 kts 32°
2026-04-22 12:41 25.35517 51.04195 2019 ft 95 kts 351°
2026-04-22 12:41 25.35975 51.04183 2016 ft 105 kts 355°
2026-04-22 12:41 25.36723 51.03933 1839 ft 115 kts 345°
2026-04-22 12:42 25.37423 51.03680 1678 ft 96 kts 345°
2026-04-22 12:42 25.37997 51.03460 1575 ft 81 kts 345°
2026-04-22 12:42 25.38539 51.03246 1468 ft 85 kts 341°
2026-04-22 12:42 25.39296 51.02946 1317 ft 87 kts 341°
2026-04-22 12:43 25.39675 51.02792 1239 ft 85 kts 341°
2026-04-22 12:43 25.40230 51.02568 1130 ft 87 kts 341°
2026-04-22 12:43 25.40812 51.02337 1021 ft 89 kts 341°
2026-04-22 12:43 25.41380 51.02109 912 ft 84 kts 341°
2026-04-22 12:44 25.41922 51.01891 810 ft 84 kts 339°
2026-04-22 12:44 25.42492 51.01666 711 ft 88 kts 340°
2026-04-22 12:44 25.43050 51.01442 611 ft 82 kts 340°
2026-04-22 12:44 25.43561 51.01235 501 ft 79 kts 343°
2026-04-22 12:45 25.44061 51.01036 403 ft 78 kts 342°
2026-04-22 12:45 25.44605 51.00816 302 ft 86 kts 341°
2026-04-22 12:45 25.45148 51.00600 176 ft 84 kts 341°
2026-04-22 12:45 25.45682 51.00392 116 ft 75 kts 340°
2026-04-22 12:46 25.45996 51.00263 113 ft 22 kts 340°
2026-04-22 12:46 25.45983 51.00093 116 ft 18 kts 250°
2026-04-22 12:46 25.45891 51.00109 118 ft 23 kts 159°
2026-04-22 12:46 25.45692 51.00186 117 ft 35 kts 160°
2026-04-22 12:47 25.45478 51.00273 118 ft 35 kts 161°
2026-04-22 12:47 25.45205 51.00382 118 ft 40 kts 159°
2026-04-22 12:47 25.45061 51.00323 118 ft 30 kts 250°
2026-04-22 12:47 25.45082 51.00202 117 ft 19 kts 339°
2026-04-22 12:48 25.45116 51.00188 120 ft 0 kts 339°
2026-04-22 13:05 25.45167 51.00167 119 ft 15 kts 340°
2026-04-22 13:05 25.45307 51.00111 120 ft 27 kts 340°
2026-04-22 13:05 25.45485 51.00039 119 ft 27 kts 340°
2026-04-22 13:06 25.45566 51.00128 117 ft 25 kts 72°
2026-04-22 13:06 25.45671 51.00193 118 ft 25 kts 340°
2026-04-22 13:06 25.45869 51.00113 118 ft 35 kts 339°
2026-04-22 13:06 25.46091 51.00026 117 ft 10 kts 341°
2026-04-22 13:07 25.46095 51.00024 118 ft 0 kts 341°
2026-04-22 13:07 25.46105 51.00020 120 ft 7 kts 340°
2026-04-22 13:07 25.46109 51.00018 121 ft 0 kts 337°
2026-04-22 13:08 25.46163 50.99996 118 ft 16 kts 341°
2026-04-22 13:08 25.46307 50.99939 118 ft 27 kts 342°
2026-04-22 13:08 25.46450 50.99902 117 ft 13 kts 36°
2026-04-22 13:09 25.46467 50.99931 118 ft 0 kts 69°
2026-04-22 13:15 25.46474 50.99950 117 ft 0 kts 67°
2026-04-22 13:16 25.46491 51.00004 114 ft 16 kts 70°
2026-04-22 13:17 25.46596 51.00023 114 ft 26 kts 340°
2026-04-22 13:17 25.46967 50.99873 112 ft 86 kts 338°
2026-04-22 13:17 25.47616 50.99607 318 ft 107 kts 337°
2026-04-22 13:17 25.48356 50.99289 603 ft 122 kts 340°
2026-04-22 13:18 25.49179 50.99228 1231 ft 129 kts 26°
2026-04-22 13:18 25.49729 50.99996 2123 ft 127 kts 49°
2026-04-22 13:18 25.50247 51.00813 2768 ft 137 kts 48°
2026-04-22 13:18 25.50883 51.01728 2998 ft 159 kts 48°
2026-04-22 13:19 25.51525 51.02642 2995 ft 145 kts 53°
2026-04-22 13:19 25.51627 51.03745 2987 ft 149 kts 94°
2026-04-22 13:19 25.51412 51.04847 2985 ft 144 kts 95°
2026-04-22 13:19 25.51100 51.05905 2990 ft 153 kts 117°
2026-04-22 13:20 25.50308 51.06719 2989 ft 164 kts 153°
2026-04-22 13:20 25.49220 51.07064 2993 ft 161 kts 161°
2026-04-22 13:20 25.48133 51.07379 2998 ft 162 kts 161°
2026-04-22 13:20 25.47004 51.07676 3002 ft 175 kts 162°
2026-04-22 13:21 25.45754 51.07994 3006 ft 193 kts 162°
2026-04-22 13:21 25.44382 51.08350 3007 ft 211 kts 163°
2026-04-22 13:21 25.42897 51.08748 3007 ft 228 kts 163°
2026-04-22 13:21 25.41302 51.09184 3002 ft 244 kts 163°
2026-04-22 13:22 25.39630 51.09652 2999 ft 250 kts 163°
2026-04-22 13:22 25.37932 51.10133 2998 ft 252 kts 163°
2026-04-22 13:22 25.36235 51.10622 2996 ft 253 kts 163°
2026-04-22 13:22 25.34526 51.11120 2997 ft 254 kts 162°
2026-04-22 13:23 25.32838 51.11608 2998 ft 254 kts 162°
2026-04-22 13:23 25.31121 51.12095 2992 ft 254 kts 163°
2026-04-22 13:23 25.29417 51.12591 2986 ft 252 kts 163°
2026-04-22 13:23 25.27723 51.13101 2985 ft 251 kts 162°
2026-04-22 13:24 25.26035 51.13605 2983 ft 252 kts 162°
2026-04-22 13:24 25.24343 51.14105 2983 ft 252 kts 162°
2026-04-22 13:24 25.22648 51.14600 2982 ft 252 kts 162°
2026-04-22 13:24 25.20944 51.15084 2982 ft 252 kts 163°
2026-04-22 13:25 25.19243 51.15574 2982 ft 252 kts 163°
2026-04-22 13:25 25.17544 51.16076 2985 ft 254 kts 162°
2026-04-22 13:25 25.15835 51.16569 2988 ft 254 kts 162°
2026-04-22 13:25 25.14127 51.17050 2988 ft 252 kts 163°
2026-04-22 13:26 25.12446 51.17476 2981 ft 251 kts 173°
2026-04-22 13:26 25.10757 51.17040 2971 ft 255 kts 212°
2026-04-22 13:26 25.09667 51.15574 2971 ft 247 kts 253°
2026-04-22 13:26 25.09636 51.13752 2976 ft 236 kts 291°
2026-04-22 13:27 25.10284 51.12104 2981 ft 235 kts 301°
2026-04-22 13:27 25.10961 51.10673 2989 ft 236 kts 302°
2026-04-22 13:27 25.11476 51.09616 2988 ft 236 kts 302°
2026-04-22 13:27 25.12527 51.07465 2989 ft 238 kts 303°
2026-04-22 13:28 25.13047 51.06407 2989 ft 236 kts 307°
2026-04-22 13:28 25.14655 51.04947 2981 ft 224 kts 338°
2026-04-22 13:28 25.16090 51.04280 2987 ft 224 kts 342°
2026-04-22 13:28 25.17554 51.03653 2991 ft 225 kts 342°
2026-04-22 13:29 25.18526 51.03241 2992 ft 226 kts 343°
2026-04-22 13:29 25.20000 51.02623 2992 ft 227 kts 342°
2026-04-22 13:29 25.21485 51.02009 2994 ft 226 kts 343°
2026-04-22 13:29 25.22954 51.01404 2996 ft 226 kts 342°
2026-04-22 13:30 25.24430 51.00799 2995 ft 226 kts 343°
2026-04-22 13:30 25.25945 51.00491 2996 ft 220 kts 355°
2026-04-22 13:30 25.27307 50.99717 2996 ft 231 kts 317°
2026-04-22 13:30 25.27919 50.98058 2998 ft 244 kts 277°
2026-04-22 13:31 25.27444 50.96234 2992 ft 257 kts 238°
2026-04-22 13:31 25.26042 50.95044 2993 ft 259 kts 199°
2026-04-22 13:31 25.24292 50.94993 2992 ft 252 kts 160°
2026-04-22 13:31 25.22824 50.95978 2997 ft 245 kts 137°
2026-04-22 13:32 25.21355 50.96913 2999 ft 251 kts 156°
2026-04-22 13:32 25.19681 50.97506 3006 ft 252 kts 160°
2026-04-22 13:32 25.17987 50.98045 3011 ft 254 kts 161°
2026-04-22 13:32 25.16286 50.98579 3010 ft 254 kts 161°
2026-04-22 13:33 25.14586 50.99119 3011 ft 254 kts 160°
2026-04-22 13:33 25.12893 50.99658 3010 ft 254 kts 161°
2026-04-22 13:33 25.11197 51.00195 3008 ft 252 kts 161°
2026-04-22 13:33 25.09516 51.00735 3007 ft 252 kts 160°
2026-04-22 13:34 25.07834 51.01278 3007 ft 252 kts 161°
2026-04-22 13:34 25.06148 51.01836 3003 ft 252 kts 157°
2026-04-22 13:34 25.04798 51.02956 2990 ft 241 kts 121°
2026-04-22 13:34 25.04227 51.04628 2989 ft 230 kts 88°
2026-04-22 13:35 25.04423 51.06345 2997 ft 225 kts 74°
2026-04-22 13:35 25.04786 51.08021 2999 ft 224 kts 69°
2026-04-22 13:35 25.05342 51.09620 3004 ft 222 kts 64°
2026-04-22 13:35 25.05972 51.11180 3006 ft 223 kts 63°
2026-04-22 13:36 25.06612 51.12719 3003 ft 224 kts 62°
2026-04-22 13:36 25.07262 51.14277 3004 ft 223 kts 62°
2026-04-22 13:36 25.07904 51.15843 3002 ft 224 kts 63°
2026-04-22 13:36 25.08539 51.17418 2998 ft 224 kts 63°
2026-04-22 13:37 25.09183 51.18977 3003 ft 224 kts 62°
2026-04-22 13:37 25.09831 51.20536 3005 ft 223 kts 62°
2026-04-22 13:37 25.10468 51.22095 2998 ft 223 kts 63°
2026-04-22 13:37 25.11103 51.23659 2999 ft 224 kts 63°
2026-04-22 13:38 25.11740 51.25223 3003 ft 223 kts 62°
2026-04-22 13:38 25.12906 51.28374 3006 ft 224 kts 68°
2026-04-22 13:38 25.13391 51.30008 3006 ft 224 kts 68°
2026-04-22 13:39 25.13866 51.31642 3002 ft 223 kts 69°
2026-04-22 13:39 25.14339 51.33269 3004 ft 222 kts 69°
2026-04-22 13:39 25.14822 51.34907 3004 ft 226 kts 69°
2026-04-22 13:39 25.15309 51.36557 3001 ft 227 kts 69°
2026-04-22 13:40 25.15795 51.38210 3005 ft 226 kts 68°
2026-04-22 13:40 25.16264 51.39833 3315 ft 212 kts 69°
2026-04-22 13:40 25.16694 51.41318 4007 ft 198 kts 70°
2026-04-22 13:40 25.17155 51.42763 4414 ft 203 kts 70°
2026-04-22 13:41 25.17681 51.44264 4497 ft 216 kts 69°
2026-04-22 13:41 25.18247 51.45837 4497 ft 222 kts 69°
2026-04-22 13:41 25.18825 51.47437 4504 ft 226 kts 69°
2026-04-22 13:41 25.19614 51.48904 4489 ft 228 kts 44°
2026-04-22 13:42 25.21101 51.49533 4480 ft 237 kts
2026-04-22 13:42 25.22735 51.49149 4494 ft 243 kts 345°
2026-04-22 13:42 25.24158 51.48155 4480 ft 251 kts 314°
2026-04-22 13:42 25.24802 51.46385 4482 ft 258 kts 275°
2026-04-22 13:43 25.24373 51.44490 4485 ft 260 kts 237°
2026-04-22 13:43 25.23029 51.43241 4487 ft 252 kts 199°
2026-04-22 13:43 25.21346 51.42750 4499 ft 250 kts 188°
2026-04-22 13:43 25.19635 51.42418 4509 ft 251 kts 186°
2026-04-22 13:44 25.17913 51.42173 4501 ft 247 kts 175°
2026-04-22 13:44 25.16219 51.42408 4500 ft 245 kts 165°
2026-04-22 13:44 25.14546 51.42774 4497 ft 246 kts 163°
2026-04-22 13:44 25.12870 51.43154 4503 ft 242 kts 162°
2026-04-22 13:45 25.11477 51.44009 4492 ft 229 kts 131°
2026-04-22 13:45 25.10463 51.45378 4492 ft 229 kts 123°
2026-04-22 13:45 25.09520 51.46802 4494 ft 230 kts 123°
2026-04-22 13:45 25.08586 51.48237 4494 ft 231 kts 122°
2026-04-22 13:46 25.07805 51.49746 4491 ft 227 kts 112°
2026-04-22 13:46 25.07173 51.51332 4493 ft 226 kts 111°
2026-04-22 13:46 25.06557 51.52914 4491 ft 223 kts 111°
2026-04-22 13:46 25.05946 51.54490 4493 ft 225 kts 110°
2026-04-22 13:47 25.05234 51.56024 4492 ft 230 kts 127°
2026-04-22 13:47 25.03859 51.56959 4487 ft 239 kts 155°
2026-04-22 13:47 25.02270 51.57496 4487 ft 238 kts 161°
2026-04-22 13:47 25.00868 51.58248 4477 ft 215 kts 133°
2026-04-22 13:48 25.00221 51.59718 4406 ft 221 kts 98°
2026-04-22 13:48 25.00528 51.61376 4226 ft 228 kts 59°
2026-04-22 13:48 25.01665 51.62556 4093 ft 219 kts 36°
2026-04-22 13:48 25.02975 51.63312 3968 ft 211 kts 25°
2026-04-22 13:49 25.04314 51.63879 3820 ft 207 kts 22°
2026-04-22 13:49 25.05668 51.64438 3654 ft 203 kts 21°
2026-04-22 13:49 25.07040 51.64576 3498 ft 203 kts 357°
2026-04-22 13:49 25.08435 51.64248 3285 ft 208 kts 346°
2026-04-22 13:50 25.09759 51.63690 3011 ft 194 kts 342°
2026-04-22 13:50 25.10951 51.63164 2756 ft 174 kts 342°
2026-04-22 13:50 25.12005 51.62699 2534 ft 152 kts 342°
2026-04-22 13:50 25.12923 51.62293 2469 ft 136 kts 342°
2026-04-22 13:51 25.13769 51.61919 2467 ft 127 kts 342°
2026-04-22 13:51 25.14585 51.61560 2487 ft 125 kts 342°
2026-04-22 13:51 25.15415 51.61195 2324 ft 125 kts 342°
2026-04-22 13:51 25.16175 51.60860 1905 ft 110 kts 342°
2026-04-22 13:52 25.16797 51.60585 1538 ft 88 kts 343°
2026-04-22 13:52 25.17321 51.60356 1410 ft 74 kts 342°
2026-04-22 13:52 25.17804 51.60144 1314 ft 76 kts 343°
2026-04-22 13:52 25.18279 51.59937 1215 ft 71 kts 342°
2026-04-22 13:53 25.18739 51.59733 1130 ft 74 kts 342°
2026-04-22 13:53 25.19235 51.59520 1017 ft 76 kts 342°
2026-04-22 13:53 25.19699 51.59316 931 ft 69 kts 341°
2026-04-22 13:53 25.20163 51.59112 856 ft 76 kts 343°
2026-04-22 13:54 25.20677 51.58885 769 ft 81 kts 346°
2026-04-22 13:54 25.21205 51.58657 672 ft 82 kts 345°
2026-04-22 13:54 25.21745 51.58419 578 ft 86 kts 344°
2026-04-22 13:54 25.22320 51.58166 469 ft 91 kts 344°
2026-04-22 13:55 25.22887 51.57915 353 ft 84 kts 343°
2026-04-22 13:55 25.23406 51.57694 238 ft 78 kts 342°
2026-04-22 13:55 25.23892 51.57475 126 ft 73 kts 343°
2026-04-22 13:55 25.24340 51.57288 28 ft 64 kts 346°
2026-04-22 13:56 25.24702 51.57129 23 ft 50 kts 337°
2026-04-22 13:56 25.25013 51.56992 23 ft 45 kts 340°
2026-04-22 13:56 25.25174 51.57026 20 ft 21 kts 66°
2026-04-22 13:56 25.25198 51.57079 21 ft 7 kts 34°
2026-04-22 13:57 25.25284 51.57068 22 ft 19 kts 339°
2026-04-22 13:57 25.25441 51.56999 23 ft 29 kts 336°
2026-04-22 13:57 25.25655 51.56903 22 ft 33 kts 340°
2026-04-22 13:57 25.25834 51.56825 25 ft 33 kts 338°
2026-04-22 13:58 25.26061 51.56723 29 ft 34 kts 340°
2026-04-22 13:58 25.26266 51.56634 27 ft 19 kts 354°
2026-04-22 13:58 25.26398 51.56646 25 ft 25 kts 339°
2026-04-22 13:58 25.26607 51.56553 20 ft 39 kts 337°
2026-04-22 13:59 25.26866 51.56440 20 ft 37 kts 339°
2026-04-22 13:59 25.27085 51.56352 22 ft 25 kts 345°
2026-04-22 13:59 25.27178 51.56317 22 ft 4 kts 37°
2026-04-22 13:59 25.27194 51.56351 22 ft 3 kts 10°
2026-04-22 14:00 25.27207 51.56346 22 ft 0 kts 336°